Weather History for Wrangell, AK

Change the Weather History Date:

Monday, August 19, 2013

  Actual Average Record
Temperature  
Mean Temperature 52 °F -  
Max Temperature 55 °F 63 °F 79 °F (1977)
Min Temperature 50 °F 48 °F 37 °F (1969)
Degree Days  
Heating Degree Days 12    
Growing Degree Days 2 (Base 50)    
Moisture  
Dew Point 48 °F    
Average Humidity 82    
Maximum Humidity 88    
Minimum Humidity 77    
Precipitation  
Precipitation 0.12 in - - ()
Sea Level Pressure  
Sea Level Pressure 29.88 in    
Wind  
Wind Speed 6 mph (East)    
Max Wind Speed 12 mph    
Max Gust Speed -    
Visibility 10 miles    
Events      
Averages and records for this station are not official NWS values.
T = Trace of Precipitation, MM = Missing Value Source: NWS Daily Summary

Daily Weather History Graph

Daily Weather History Graph

Search for Another Location

Airport:

Trip Planner

Search our weather history database for the weather conditions in past years. The results will help you decide how hot, cold, wet, or windy it might be!

Date:

Astronomy

Aug. 19, 2013 Rise Set
Actual Time 5:27 AM AKDT 8:17 PM AKDT
Civil Twilight 4:44 AM AKDT 8:59 PM AKDT
Nautical Twilight 3:47 AM AKDT 9:56 PM AKDT
Astronomical Twilight 2:29 AM AKDT 11:11 PM AKDT
Moon 7:10 PM AKDT (8/19) 3:49 AM AKDT (8/19)
Length of Visible Light 16h 15m
Length of Day
14h 49m
Waxing Gibbous, 98% of the Moon is Illuminated
Aug 19
Waxing Gibbous
Aug 20
Full
Aug 28
Last Quarter
Sep 5
New
Sep 12
First Quarter

Hourly Weather History & Observations

Time (AKDT) Temp. Dew Point Humidity Pressure Visibility Wind Dir Wind Speed Gust Speed Precip Events Conditions
12:16 AM 53.6 °F 48.2 °F 82% 29.78 in 10.0 mi East 10.4 mph - N/A   Overcast
12:36 AM 53.6 °F 48.2 °F 82% 29.78 in 10.0 mi East 9.2 mph - N/A   Overcast
12:56 AM 53.6 °F 48.2 °F 82% 29.78 in 10.0 mi East 9.2 mph - N/A   Overcast
1:16 AM 53.6 °F 48.2 °F 82% 29.78 in 10.0 mi East 11.5 mph - N/A   Overcast
1:36 AM 53.6 °F 48.2 °F 82% 29.78 in 10.0 mi East 9.2 mph - N/A   Overcast
1:56 AM 53.6 °F 48.2 °F 82% 29.77 in 10.0 mi East 8.1 mph - N/A   Overcast
2:16 AM 53.6 °F 48.2 °F 82% 29.77 in 10.0 mi East 9.2 mph - N/A   Overcast
2:36 AM 53.6 °F 48.2 °F 82% 29.76 in 10.0 mi ESE 5.8 mph - N/A   Overcast
2:56 AM 53.6 °F 48.2 °F 82% 29.76 in 10.0 mi ESE 8.1 mph - N/A   Overcast
3:16 AM 53.6 °F 48.2 °F 82% 29.76 in 10.0 mi East 6.9 mph - N/A   Overcast
3:36 AM 53.6 °F 48.2 °F 82% 29.76 in 10.0 mi East 5.8 mph - N/A   Overcast
3:56 AM 53.6 °F 48.2 °F 82% 29.75 in 10.0 mi East 8.1 mph - 0.01 in   Partly Cloudy
4:16 AM 53.6 °F 48.2 °F 82% 29.75 in 10.0 mi East 6.9 mph - N/A   Scattered Clouds
4:36 AM 53.6 °F 48.2 °F 82% 29.75 in 10.0 mi East 9.2 mph - 0.01 in   Overcast
4:56 AM 53.6 °F 48.2 °F 82% 29.75 in 10.0 mi East 9.2 mph - 0.04 in   Overcast
5:16 AM 53.6 °F 48.2 °F 82% 29.75 in 10.0 mi East 6.9 mph - 0.01 in   Overcast
5:36 AM 53.6 °F 48.2 °F 82% 29.75 in 10.0 mi ESE 3.5 mph - 0.02 in   Overcast
5:56 AM 50.0 °F 46.4 °F 87% 29.75 in 10.0 mi NW 4.6 mph - 0.02 in   Overcast
6:16 AM 50.0 °F 46.4 °F 87% 29.76 in 10.0 mi Calm Calm - N/A   Overcast
6:36 AM 50.0 °F 46.4 °F 87% 29.76 in 10.0 mi WNW 4.6 mph - N/A   Overcast
6:56 AM 50.0 °F 46.4 °F 87% 29.76 in 10.0 mi NW 4.6 mph - N/A   Overcast
7:16 AM 50.0 °F 46.4 °F 87% 29.77 in 10.0 mi NW 3.5 mph - N/A   Overcast
7:36 AM 50.0 °F 46.4 °F 87% 29.77 in 10.0 mi Calm Calm - N/A   Overcast
7:56 AM 51.8 °F 46.4 °F 82% 29.78 in 10.0 mi Calm Calm - N/A   Overcast
8:16 AM 51.8 °F 46.4 °F 82% 29.79 in 10.0 mi Calm Calm - N/A   Overcast
8:36 AM 51.8 °F 46.4 °F 82% 29.79 in 10.0 mi Calm Calm - 0.01 in   Overcast
8:56 AM 51.8 °F 46.4 °F 82% 29.80 in 10.0 mi NW 3.5 mph - 0.01 in   Overcast
9:16 AM 51.8 °F 48.2 °F 88% 29.81 in 10.0 mi Calm Calm - N/A   Overcast
9:36 AM 51.8 °F 48.2 °F 88% 29.82 in 10.0 mi ENE 3.5 mph - 0.01 in   Overcast
9:56 AM 53.6 °F 48.2 °F 82% 29.83 in 10.0 mi ENE 5.8 mph - 0.01 in   Overcast
10:16 AM 53.6 °F 48.2 °F 82% 29.84 in 10.0 mi East 5.8 mph - N/A   Overcast
10:36 AM 53.6 °F 48.2 °F 82% 29.85 in 10.0 mi East 5.8 mph - 0.01 in   Overcast
10:56 AM 53.6 °F 48.2 °F 82% 29.85 in 10.0 mi East 6.9 mph - 0.01 in   Overcast
11:16 AM 53.6 °F 48.2 °F 82% 29.86 in 10.0 mi ESE 4.6 mph - N/A   Overcast
11:36 AM 53.6 °F 48.2 °F 82% 29.87 in 10.0 mi ESE 3.5 mph - N/A   Overcast
11:56 AM 53.6 °F 48.2 °F 82% 29.87 in 10.0 mi ESE 4.6 mph - N/A   Overcast
12:16 PM 55.4 °F 48.2 °F 77% 29.88 in 10.0 mi SE 4.6 mph - N/A   Overcast
12:36 PM 53.6 °F 48.2 °F 82% 29.88 in 10.0 mi SE 4.6 mph - N/A   Overcast
12:56 PM 55.4 °F 48.2 °F 77% 29.88 in 10.0 mi SE 4.6 mph - N/A   Overcast
1:16 PM 55.4 °F 48.2 °F 77% 29.89 in 10.0 mi SE 3.5 mph - N/A   Overcast
1:36 PM 55.4 °F 48.2 °F 77% 29.90 in 10.0 mi West 3.5 mph - N/A   Overcast
1:56 PM 53.6 °F 48.2 °F 82% 29.91 in 7.0 mi NW 4.6 mph - N/A   Overcast
2:16 PM 53.6 °F 48.2 °F 82% 29.91 in 7.0 mi NNW 3.5 mph - N/A   Overcast
2:36 PM 53.6 °F 48.2 °F 82% 29.92 in 7.0 mi WNW 4.6 mph - N/A   Overcast
2:56 PM 53.6 °F 48.2 °F 82% 29.93 in 7.0 mi Calm Calm - 0.01 in   Overcast
3:16 PM 53.6 °F 48.2 °F 82% 29.93 in 7.0 mi Calm Calm - N/A   Overcast
3:36 PM 53.6 °F 50.0 °F 88% 29.94 in 7.0 mi ENE 3.5 mph - N/A   Overcast
3:56 PM 53.6 °F 50.0 °F 88% 29.94 in 10.0 mi ENE 3.5 mph - N/A   Mostly Cloudy
4:16 PM 55.4 °F 50.0 °F 82% 29.94 in 10.0 mi Calm Calm - N/A   Mostly Cloudy
4:36 PM 55.4 °F 48.2 °F 77% 29.95 in 10.0 mi East 3.5 mph - N/A   Mostly Cloudy
4:56 PM 55.4 °F 48.2 °F 77% 29.95 in 10.0 mi SE 3.5 mph - N/A   Overcast
5:16 PM 55.4 °F 48.2 °F 77% 29.96 in 10.0 mi Calm Calm - N/A   Overcast
5:36 PM 55.4 °F 48.2 °F 77% 29.96 in 10.0 mi Calm Calm - N/A   Overcast
5:56 PM 55.4 °F 50.0 °F 82% 29.96 in 10.0 mi ESE 3.5 mph - N/A   Mostly Cloudy
6:16 PM 55.4 °F 48.2 °F 77% 29.97 in 10.0 mi Calm Calm - N/A   Mostly Cloudy
6:36 PM 55.4 °F 48.2 °F 77% 29.97 in 10.0 mi Calm Calm - N/A   Mostly Cloudy
6:56 PM 55.4 °F 48.2 °F 77% 29.97 in 10.0 mi ESE 3.5 mph - N/A   Mostly Cloudy
7:16 PM 55.4 °F 50.0 °F 82% 29.98 in 10.0 mi Calm Calm - N/A   Mostly Cloudy
7:36 PM 55.4 °F 50.0 °F 82% 29.98 in 10.0 mi ENE 3.5 mph - N/A   Mostly Cloudy
7:56 PM 53.6 °F 48.2 °F 82% 29.99 in 10.0 mi SE 3.5 mph - N/A   Mostly Cloudy
8:16 PM 55.4 °F 48.2 °F 77% 29.99 in 10.0 mi ESE 3.5 mph - N/A   Mostly Cloudy
8:36 PM 53.6 °F 48.2 °F 82% 30.00 in 10.0 mi Calm Calm - N/A   Mostly Cloudy
8:56 PM 55.4 °F 50.0 °F 82% 30.01 in 10.0 mi Calm Calm - 0.01 in   Overcast
9:16 PM 53.6 °F 50.0 °F 88% 30.01 in 10.0 mi East 4.6 mph - N/A   Overcast
9:36 PM 53.6 °F 50.0 °F 88% 30.01 in 10.0 mi ESE 4.6 mph - N/A   Overcast
9:56 PM 53.6 °F 50.0 °F 88% 30.02 in 10.0 mi ESE 3.5 mph - N/A   Mostly Cloudy
10:16 PM 53.6 °F 48.2 °F 82% 30.02 in 10.0 mi Calm Calm - N/A   Mostly Cloudy
10:36 PM 53.6 °F 50.0 °F 88% 30.02 in 10.0 mi Calm Calm - N/A   Mostly Cloudy
10:56 PM 53.6 °F 48.2 °F 82% 30.02 in 10.0 mi ESE 4.6 mph - N/A   Mostly Cloudy
11:16 PM 53.6 °F 50.0 °F 88% 30.03 in 10.0 mi SE 4.6 mph - N/A   Overcast
11:36 PM 53.6 °F 48.2 °F 82% 30.03 in 10.0 mi SE 5.8 mph - N/A   Overcast
11:56 PM 53.6 °F 50.0 °F 88% 30.04 in 10.0 mi SE 4.6 mph - N/A   Overcast